Stations météo

réclame
Mon MeteoGroup
Vaestmarkum, Suède (2260): Température de l'air & dewpoint: 17.10.2018 22:00:00 - 23.10.2018 22:00:00 (CEST)Vaestmarkum, Suède (2260): Vitesse du vent & gusts: 17.10.2018 22:00:00 - 23.10.2018 22:00:00 (CEST)Vaestmarkum, Suède (2260): Direction du vent: 17.10.2018 22:00:00 - 23.10.2018 22:00:00 (CEST)Vaestmarkum, Suède (2260): reduced air pressure: 17.10.2018 22:00:00 - 23.10.2018 22:00:00 (CEST)Vaestmarkum, Suède (2260): visibility: 17.10.2018 22:00:00 - 23.10.2018 22:00:00 (CEST)Vaestmarkum, Suède (2260): Quantités de précipitations: 17.10.2018 22:00:00 - 23.10.2018 22:00:00 (CEST)
Date & Time tt [°C] td [°C] ff [km/h] ff [knt] fx [km/h] fx [knt] dd ppp [hPa] vv [km] rr [mm]
23.10.2018 22:00:00 2,3 0,4 9 5 22 12 NW 993,2 50 0,0
23.10.2018 21:00:00 2,1 0,3 10 6 24 13 NW 992,5 30 0,0
23.10.2018 20:00:00 1,5 0,3 8 4 21 11 NW 992,0 50 0,0
23.10.2018 19:00:00 -1,0 -1,0 0 0 5 3 N 991,7 50 0,0
23.10.2018 18:00:00 0,1 -1,0 0 0 8 4 N 991,2 50 0,0
23.10.2018 17:00:00 1,7 0,4 3 2 14 8 WNW 991,0 50 0,0
23.10.2018 16:00:00 3,5 0,9 5 3 10 5 NW 990,6 50 0,0
23.10.2018 15:00:00 4,1 1,1 4 2 6 3 WNW 990,5 50 0,0
23.10.2018 14:00:00 4,5 0,8 3 2 6 3 N 990,7 50 0,0
23.10.2018 13:00:00 4,5 1,7 0 0 7 4 N 990,9 43 0,0
23.10.2018 12:00:00 3,3 2,0 3 2 5 3 WNW 991,3 42 0,0
23.10.2018 11:00:00 0,5 0,5 2 1 7 4 WNW 991,4 49 0,0
23.10.2018 10:00:00 -0,9 -0,9 2 1 5 3 W 991,6 50 0,0
23.10.2018 09:00:00 -2,0 -2,0 2 1 5 3 WNW 992,0 50 0,0
23.10.2018 08:00:00 -3,3 -3,3 4 2 5 3 WNW 992,4 50 0,0
23.10.2018 07:00:00 -3,8 -3,8 3 2 5 3 NW 992,7 50 0,0
23.10.2018 06:00:00 -3,2 -3,2 0 0 4 2 N 993,1 50 0,0
23.10.2018 05:00:00 -2,9 -2,9 2 1 7 4 ESE 993,9 50 0,0
23.10.2018 04:00:00 -2,3 -2,3 3 2 5 3 W 994,7 50 0,0
23.10.2018 03:00:00 -1,8 -2,1 3 2 5 3 NNE 996,2 50 0,0
23.10.2018 02:00:00 -1,0 -1,8 0 0 20 11 N 997,6 50 0,0
23.10.2018 01:00:00 1,1 -1,1 12 6 21 11 W 998,9 50 0,0
23.10.2018 00:00:00 -1,4 -2,2 3 2 11 6 SSE 1000,2 50 0,0
22.10.2018 23:00:00 1,7 -0,9 5 3 18 10 WSW 1000,4 50 0,0
22.10.2018 22:00:00 2,2 -0,7 8 5 26 14 W 1001,1 50 0,0
22.10.2018 21:00:00 3,1 -0,4 13 7 30 16 W 1001,5 50 0,0
22.10.2018 20:00:00 3,7 -0,1 9 5 30 16 WNW 1001,9 50 0,0
22.10.2018 19:00:00 4,1 -0,3 12 6 31 17 WNW 1002,0 50 0,0
22.10.2018 18:00:00 4,8 0,2 10 5 37 20 WNW 1002,1 50 0,0
22.10.2018 17:00:00 5,8 0,4 14 7 35 19 W 1001,7 50 0,0
22.10.2018 16:00:00 6,0 0,5 9 5 31 17 WNW 1001,6 50 0,0
22.10.2018 15:00:00 5,9 0,0 16 9 43 23 W 1001,6 50 0,0
22.10.2018 14:00:00 6,2 0,3 17 9 35 19 W 1001,9 50 0,0
22.10.2018 13:00:00 6,1 0,0 16 9 35 19 W 1001,8 50 0,0
22.10.2018 12:00:00 5,7 0,7 5 3 22 12 W 1002,1 44 0,0
22.10.2018 11:00:00 4,7 1,7 3 2 16 8 NW 1002,8 50 0,0
22.10.2018 10:00:00 2,8 1,5 7 4 16 9 WNW 1003,1 50 0,0
22.10.2018 09:00:00 -0,2 -0,2 3 1 5 3 WSW 1003,1 8 0,0
22.10.2018 08:00:00 -0,1 -0,1 3 1 11 6 SE 1003,1 36 0,0
22.10.2018 07:00:00 0,0 0,0 3 1 6 3 ESE 1002,8 4,0 0,0
22.10.2018 06:00:00 3,1 2,4 3 2 26 14 WSW 1003,2 50 0,0
22.10.2018 05:00:00 2,9 2,9 4 2 22 12 W 1003,1 50 0,0
22.10.2018 04:00:00 4,0 3,3 14 8 23 13 W 1002,9 50 0,0
22.10.2018 03:00:00 4,2 3,9 10 5 20 11 W 1002,7 50 0,0
22.10.2018 02:00:00 4,7 4,4 6 4 14 7 WNW 1002,2 50 0,0
22.10.2018 01:00:00 5,2 4,9 3 2 17 9 W 1001,7 50 0,5
22.10.2018 00:00:00 4,9 4,9 7 4 20 11 NW 1002,2 11 2,3
21.10.2018 23:00:00 5,6 5,6 7 4 18 10 NW 1002,5 12 2,1
21.10.2018 22:00:00 5,6 5,6 2 1 10 5 NNW 1002,7 1,6 3,1
21.10.2018 21:00:00 5,7 5,7 0 0 3 1 N 1003,3 1,5 1,6
21.10.2018 20:00:00 5,8 5,8 0 0 5 3 N 1004,1 1,5 0,5
21.10.2018 19:00:00 6,1 6,1 0 0 5 3 N 1005,2 2,3 0,1
21.10.2018 18:00:00 6,1 6,1 0 0 4 2 N 1005,8 4,7 0,0
21.10.2018 17:00:00 6,3 6,3 0 0 4 2 N 1006,6 9 0,3
21.10.2018 16:00:00 6,8 6,8 4 2 11 6 S 1007,3 47 0,0
21.10.2018 15:00:00 7,0 7,0 3 2 14 8 S 1007,8 38 0,1
21.10.2018 14:00:00 7,4 7,4 0 0 9 5 N 1007,9 46 0,0
21.10.2018 13:00:00 6,6 6,6 5 3 10 5 SSE 1008,9 50 0,0
21.10.2018 12:00:00 5,9 5,9 2 1 5 3 SE 1009,1 50 0,0
21.10.2018 11:00:00 5,5 5,5 3 1 6 3 ESE 1009,9 50 0,0
21.10.2018 10:00:00 4,9 4,9 4 2 16 8 SE 1010,3 50 0,0
21.10.2018 09:00:00 4,3 4,3 3 2 8 4 S 1010,5 34 0,7
21.10.2018 08:00:00 3,3 3,3 0 0 6 4 N 1011,2 6 0,7
21.10.2018 07:00:00 3,7 3,4 3 2 11 6 SW 1011,6 20 0,2
21.10.2018 06:00:00 5,1 3,3 5 3 17 9 SSE 1012,0 50 0,2
21.10.2018 05:00:00 4,3 3,0 7 4 14 8 SSE 1012,9 50 0,0
21.10.2018 04:00:00 3,6 3,5 6 3 14 8 SSE 1013,5 50 0,0
21.10.2018 03:00:00 -1,8 -1,8 0 0 4 2 N 1015,6 50 0,0
21.10.2018 02:00:00 -2,0 -2,0 0 0 4 2 N 1016,6 50 0,0
21.10.2018 01:00:00 -2,7 -2,7 2 1 4 2 WNW 1017,8 50 0,0
21.10.2018 00:00:00 -2,5 -2,5 0 0 5 3 N 1018,5 50 0,0
20.10.2018 23:00:00 -2,5 -2,5 3 2 6 3 WNW 1018,7 50 0,0
20.10.2018 22:00:00 -2,2 -2,2 3 2 6 3 WNW 1019,4 50 0,0
20.10.2018 21:00:00 -2,1 -2,1 0 0 4 2 N 1019,7 50 0,0
20.10.2018 20:00:00 -1,3 -1,3 0 0 4 2 N 1019,9 50 0,0
20.10.2018 19:00:00 0,2 0,2 0 0 4 2 N 1020,0 50 0,0
20.10.2018 18:00:00 2,0 1,9 0 0 4 2 N 1019,6 50 0,0
20.10.2018 17:00:00 4,1 3,8 3 1 6 4 WNW 1019,2 50 0,0
20.10.2018 16:00:00 7,5 4,6 4 2 18 10 WNW 1019,1 50 0,0
20.10.2018 15:00:00 9,0 4,4 5 3 13 7 WNW 1019,0 50 0,0
20.10.2018 14:00:00 9,6 4,0 6 3 14 8 NNW 1018,6 47 0,0
20.10.2018 13:00:00 9,6 4,2 6 4 13 7 N 1018,2 37 0,0
20.10.2018 12:00:00 9,2 4,8 6 4 13 7 N 1018,2 50 0,0
20.10.2018 11:00:00 5,4 5,1 0 0 2 1 N 1018,5 46 0,0
20.10.2018 10:00:00 2,7 2,7 0 0 5 3 N 1018,1 48 0,0
20.10.2018 09:00:00 -0,2 -0,2 4 2 6 3 NW 1017,7 30 0,0
20.10.2018 08:00:00 1,0 1,0 3 2 4 2 WNW 1017,4 15 0,0
20.10.2018 07:00:00 1,9 1,9 0 0 5 3 N 1017,3 50 0,0
20.10.2018 06:00:00 2,2 2,2 0 0 4 2 N 1017,5 50 0,0
20.10.2018 05:00:00 2,1 2,1 2 1 4 2 W 1017,3 50 0,0
20.10.2018 04:00:00 2,3 2,3 0 0 3 2 N 1017,8 50 0,0
20.10.2018 03:00:00 2,5 2,5 2 1 4 2 WNW 1017,7 50 0,0
20.10.2018 02:00:00 3,1 3,0 0 0 6 3 N 1018,0 50 0,0
20.10.2018 01:00:00 3,4 3,0 0 0 3 2 N 1017,9 50 0,0
20.10.2018 00:00:00 3,4 2,8 0 0 5 3 N 1018,1 50 0,0
19.10.2018 23:00:00 4,4 3,4 4 2 13 7 W 1017,9 50 0,0
19.10.2018 22:00:00 5,4 3,2 0 0 4 2 N 1018,1 50 0,0
19.10.2018 21:00:00 6,4 3,4 3 2 13 7 E 1018,1 50 0,0
19.10.2018 20:00:00 7,2 3,3 9 5 18 10 WNW 1017,8 50 0,0
19.10.2018 19:00:00 7,3 3,2 7 4 17 9 WNW 1017,8 50 0,0
19.10.2018 18:00:00 6,5 2,6 6 3 14 8 WNW 1017,9 50 0,0
19.10.2018 17:00:00 6,6 2,5 5 3 20 11 WNW 1018,0 50 0,0
19.10.2018 16:00:00 8,7 2,3 6 3 26 14 WNW 1017,9 50 0,0
19.10.2018 15:00:00 9,4 2,3 17 9 32 18 WNW 1017,7 50 0,0
19.10.2018 14:00:00 9,7 2,3 11 6 23 12 WNW 1017,8 44 0,0
19.10.2018 13:00:00 9,5 2,1 9 5 27 15 WNW 1017,6 44 0,0
19.10.2018 12:00:00 8,1 1,7 13 7 46 25 NW 1017,3 50 0,0
19.10.2018 11:00:00 7,0 1,5 22 12 48 26 WNW 1017,3 38 0,0
19.10.2018 10:00:00 6,3 1,2 17 9 39 21 WNW 1016,9 47 0,0
19.10.2018 09:00:00 5,6 1,3 19 10 39 21 WNW 1016,6 50 0,0
19.10.2018 08:00:00 4,9 1,0 11 6 28 15 NW 1016,9 50 0,0
19.10.2018 07:00:00 5,4 0,9 15 8 30 16 WNW 1016,8 50 0,0
19.10.2018 06:00:00 6,0 1,3 14 7 32 18 NW 1016,3 50 0,0
19.10.2018 05:00:00 5,8 1,3 13 7 29 16 NW 1015,9 50 0,0
19.10.2018 04:00:00 5,8 1,1 11 6 37 20 WNW 1015,6 48 0,0
19.10.2018 03:00:00 5,5 1,0 10 5 29 16 NW 1015,6 50 0,0
19.10.2018 02:00:00 5,7 1,0 12 6 29 16 NW 1015,3 50 0,0
19.10.2018 01:00:00 5,6 1,0 10 5 33 18 NW 1015,2 50 0,0
19.10.2018 00:00:00 5,8 0,9 13 7 31 17 W 1015,0 50 0,0
18.10.2018 23:00:00 6,4 0,9 13 7 37 20 WNW 1014,6 50 0,0
18.10.2018 22:00:00 6,8 1,1 18 10 41 22 WNW 1014,3 50 0,0
18.10.2018 21:00:00 7,1 1,4 21 11 40 22 W 1013,9 50 0,0
18.10.2018 20:00:00 6,7 1,4 9 5 26 14 W 1014,0 50 0,0
18.10.2018 19:00:00 7,4 1,3 11 6 35 19 WNW 1013,7 50 0,0
18.10.2018 18:00:00 8,0 1,4 17 9 34 18 W 1013,2 50 0,0
18.10.2018 17:00:00 8,1 1,3 7 4 26 14 NW 1012,9 50 0,0
18.10.2018 16:00:00 9,5 1,2 12 7 34 19 WNW 1012,6 47 0,0
18.10.2018 15:00:00 9,8 1,7 13 7 35 19 W 1012,7 50 0,0
18.10.2018 14:00:00 9,8 2,2 16 8 30 16 W 1012,3 49 0,0
18.10.2018 13:00:00 9,7 2,8 13 7 30 16 W 1012,6 43 0,0
18.10.2018 12:00:00 9,1 3,5 11 6 31 17 NW 1012,6 49 0,0
18.10.2018 11:00:00 7,9 3,6 14 7 27 15 NW 1012,6 44 0,0
18.10.2018 10:00:00 6,4 5,0 5 3 9 5 W 1012,5 50 0,0
18.10.2018 09:00:00 5,1 5,1 0 0 10 5 N 1012,3 50 0,0
18.10.2018 08:00:00 6,9 4,6 7 4 12 6 WNW 1011,5 50 0,0
18.10.2018 07:00:00 6,8 5,1 6 4 16 9 WNW 1011,3 50 0,0
18.10.2018 06:00:00 7,0 5,0 8 4 14 8 WNW 1011,0 50 0,0
18.10.2018 05:00:00 6,9 5,1 6 3 21 12 WNW 1011,0 50 0,0
18.10.2018 04:00:00 7,2 6,5 11 6 19 10 WNW 1011,2 50 0,0
18.10.2018 03:00:00 4,1 4,1 2 1 9 5 ENE 1011,1 20 0,0
18.10.2018 02:00:00 3,4 3,4 3 1 5 3 WNW 1010,8 12 0,0
18.10.2018 01:00:00 3,2 3,2 0 0 4 2 N 1010,6 6 0,0
18.10.2018 00:00:00 3,8 3,8 2 1 4 2 WSW 1010,4 1,3 0,0
17.10.2018 23:00:00 4,3 4,3 0 0 3 2 N 1010,3 0,4 0,0
17.10.2018 22:00:00 4,4 4,4 0 0 3 2 N 1010,3 0,3 0,0

tt = Température de l'air
td = dewpoint
ff = Vitesse du vent
fx = gusts
dd = Direction du vent
ppp = reduced air pressure
vv = visibility
rr = Quantités de précipitations

stations d'obs. à proximité